Glencoe, MN

12:47 PM CST on November 23, 2017 (GMT -0600)
Glencoe Municipal

Weather History for KGYL - December, 2012

Change the Weather History Date:

Sunday, December 9, 2012

  Actual Average (KHCD) Record (KHCD)
Temperature  
Mean Temperature 24 °F -  
Max Temperature 32 °F 27 °F 51 °F (1990)
Min Temperature 15 °F 11 °F -17 °F (1958)
Degree Days  
Heating Degree Days 41    
Moisture  
Dew Point 27 °F    
Average Humidity 94    
Maximum Humidity 96    
Minimum Humidity 86    
Precipitation  
Precipitation 0.19 in - - ()
Sea Level Pressure  
Sea Level Pressure 29.87 in    
Wind  
Wind Speed 11 mph (NE)    
Max Wind Speed 17 mph    
Max Gust Speed 23 mph    
Visibility 2 miles    
Events Snow    
Averages and records for this station are not official NWS values.
T = Trace of Precipitation, MM = Missing Value Source: NWS Daily Summary

Daily Weather History Graph

Daily Weather History Graph

Search for Another Location

Airport or City:

Trip Planner

Search our weather history database for the weather conditions in past years. The results will help you decide how hot, cold, wet, or windy it might be!

Date:

Astronomy

Dec. 09, 2012 Rise Set
Actual Time 7:42 AM CST 4:35 PM CST
Civil Twilight 7:08 AM CST 5:08 PM CST
Nautical Twilight 6:31 AM CST 5:45 PM CST
Astronomical Twilight 5:56 AM CST 6:21 PM CST
Moon 3:08 AM CST (12/9) 1:49 PM CST (12/9)
Length of Visible Light 10h 00m
Length of Day
8h 53m
Waning Crescent, 18% of the Moon is Illuminated
Dec 9
Waning Crescent
Dec 13
New
Dec 19
First Quarter
Dec 28
Full
Jan 4
Last Quarter

Hourly Weather History & Observations

Time (CST) Temp. Windchill Dew Point Humidity Pressure Visibility Wind Dir Wind Speed Gust Speed Precip Events Conditions
12:16 AM 29.8 °F 21.5 °F 28.4 °F 94% 29.96 in 1.2 mi East 9.2 mph - N/A Snow Light Snow
12:36 AM 29.8 °F 21.5 °F 28.4 °F 94% 29.95 in 0.5 mi East 9.2 mph - N/A Snow Snow
12:56 AM 30.0 °F 21.1 °F 28.9 °F 96% 29.95 in 1.2 mi East 10.4 mph - N/A Snow Light Snow
1:16 AM 30.0 °F 21.1 °F 28.9 °F 96% 29.94 in 0.8 mi East 10.4 mph - 0.01 in Snow Snow
1:36 AM 30.0 °F 20.5 °F 28.9 °F 96% 29.94 in 1.2 mi East 11.5 mph - 0.01 in Snow Light Snow
1:56 AM 30.0 °F 21.7 °F 28.9 °F 96% 29.94 in 0.8 mi East 9.2 mph - 0.01 in Snow Light Snow
2:16 AM 30.0 °F 20.0 °F 28.9 °F 96% 29.93 in 0.5 mi East 12.7 mph - N/A Snow Snow
2:36 AM 30.0 °F 20.0 °F 28.9 °F 96% 29.92 in 0.2 mi East 12.7 mph - 0.01 in Snow Snow
2:56 AM 30.0 °F 21.1 °F 28.9 °F 96% 29.93 in 1.5 mi East 10.4 mph - 0.01 in Snow Light Snow
3:16 AM 30.0 °F 20.5 °F 28.9 °F 96% 29.92 in 1.2 mi East 11.5 mph - N/A Snow Light Snow
3:36 AM 30.2 °F 20.8 °F 29.1 °F 96% 29.92 in 1.0 mi East 11.5 mph - N/A Snow Light Snow
3:56 AM 30.2 °F 19.8 °F 29.1 °F 96% 29.91 in 2.0 mi East 13.8 mph - 0.01 in Snow Light Snow
4:16 AM 30.2 °F 19.8 °F 29.3 °F 96% 29.92 in 3.0 mi East 13.8 mph - N/A Snow Light Snow
4:36 AM 30.2 °F 20.8 °F 29.3 °F 96% 29.90 in 2.5 mi East 11.5 mph - N/A Snow Light Snow
4:56 AM 30.4 °F 19.1 °F 29.3 °F 96% 29.89 in 2.5 mi East 16.1 mph - N/A Snow Light Snow
5:16 AM 30.6 °F 20.2 °F 29.3 °F 95% 29.89 in 2.5 mi East 13.8 mph - N/A Snow Light Snow
5:36 AM 30.7 °F 20.4 °F 29.3 °F 94% 29.89 in 5.0 mi East 13.8 mph - N/A   Overcast
5:56 AM 30.7 °F 20.4 °F 29.3 °F 94% 29.88 in 7.0 mi East 13.8 mph - N/A   Overcast
6:16 AM 30.9 °F 21.2 °F 29.3 °F 94% 29.88 in 5.0 mi East 12.7 mph - N/A   Overcast
6:35 AM 31.1 °F 19.7 °F 29.7 °F 94% 29.88 in 5.0 mi East 17.3 mph - N/A   Overcast
6:56 AM 31.1 °F 21.4 °F 29.8 °F 95% 29.87 in 2.5 mi East 12.7 mph - N/A   Overcast
7:16 AM 31.1 °F 20.9 °F 30.0 °F 96% 29.88 in 2.5 mi East 13.8 mph - N/A Snow Light Snow
7:36 AM 31.1 °F 21.4 °F 30.0 °F 96% 29.88 in 2.0 mi East 12.7 mph - N/A Snow Light Snow
7:56 AM 31.3 °F 21.6 °F 30.2 °F 96% 29.87 in 1.2 mi East 12.7 mph - N/A Snow Light Snow
8:16 AM 31.5 °F 21.8 °F 30.2 °F 95% 29.87 in 1.2 mi East 12.7 mph - N/A Snow Light Snow
8:35 AM 31.5 °F 21.8 °F 30.2 °F 95% 29.87 in 2.0 mi East 12.7 mph - N/A Snow Light Snow
8:56 AM 31.5 °F 22.3 °F 30.2 °F 95% 29.86 in 1.2 mi East 11.5 mph - N/A Snow Light Snow
9:36 AM 31.5 °F 22.9 °F 30.2 °F 95% 29.86 in 0.8 mi East 10.4 mph 16.1 mph 0.01 in Snow Light Snow
9:56 AM 31.5 °F 22.9 °F 30.2 °F 95% 29.87 in 0.5 mi East 10.4 mph - 0.01 in Snow Snow
10:35 AM 31.5 °F 22.9 °F 30.2 °F 95% 29.86 in 0.2 mi ENE 10.4 mph - 0.02 in Snow Snow
10:56 AM 31.5 °F 23.5 °F 30.2 °F 95% 29.85 in 0.2 mi ENE 9.2 mph - 0.04 in Snow Snow
11:16 AM 31.6 °F 23.7 °F 30.6 °F 96% 29.85 in 0.2 mi ENE 9.2 mph - 0.01 in Snow Snow
11:36 AM 31.6 °F 24.4 °F 30.6 °F 96% 29.83 in 0.2 mi ENE 8.1 mph - 0.02 in Snow Snow
11:55 AM 31.6 °F 24.4 °F 30.6 °F 96% 29.82 in 0.2 mi ENE 8.1 mph - 0.04 in Snow Snow
12:16 PM 31.8 °F 23.9 °F 30.6 °F 95% 29.81 in 0.2 mi ENE 9.2 mph - 0.01 in Snow Snow
12:36 PM 31.8 °F 24.6 °F 30.6 °F 95% 29.80 in 0.5 mi ENE 8.1 mph - 0.02 in Snow Snow
12:56 PM 31.8 °F 23.9 °F 30.6 °F 95% 29.79 in 0.5 mi ENE 9.2 mph - 0.03 in Snow Snow
1:16 PM 31.8 °F 25.4 °F 30.6 °F 95% 29.79 in 0.2 mi ENE 6.9 mph - 0.01 in Snow Snow
1:36 PM 32.0 °F 26.4 °F 30.7 °F 95% 29.78 in 0.5 mi ENE 5.8 mph - 0.02 in Snow Snow
1:56 PM 32.0 °F 26.4 °F 30.7 °F 95% 29.78 in 0.5 mi ENE 5.8 mph - 0.02 in Snow Light Snow
2:16 PM 31.8 °F 26.2 °F 30.2 °F 94% 29.78 in 1.2 mi NE 5.8 mph - N/A Snow Light Snow
2:36 PM 31.5 °F 25.8 °F 30.0 °F 94% 29.78 in 1.2 mi NE 5.8 mph - N/A Snow Light Snow
2:56 PM 31.1 °F 27.7 °F 29.8 °F 95% 29.78 in 1.5 mi NE 3.5 mph - N/A Snow Light Snow
3:16 PM 31.1 °F 26.4 °F 29.8 °F 95% 29.79 in 2.0 mi NE 4.6 mph - N/A Snow Light Snow
3:36 PM 31.1 °F 26.4 °F 29.8 °F 95% 29.80 in 2.0 mi NNE 4.6 mph - 0.01 in Snow Light Snow
3:56 PM 30.7 °F 26.0 °F 29.3 °F 94% 29.81 in 1.8 mi NNE 4.6 mph - 0.01 in Snow Light Snow
4:16 PM 30.6 °F 24.7 °F 29.1 °F 94% 29.81 in 2.0 mi NNE 5.8 mph - N/A Snow Light Snow
4:36 PM 30.0 °F 24.1 °F 28.8 °F 95% 29.82 in 1.2 mi North 5.8 mph - 0.01 in Snow Light Snow
4:56 PM 29.8 °F 21.5 °F 28.6 °F 95% 29.83 in 0.8 mi North 9.2 mph - 0.01 in Snow Snow
5:16 PM 29.3 °F 20.2 °F 28.4 °F 96% 29.83 in 1.2 mi North 10.4 mph - N/A Snow Light Snow
5:35 PM 29.3 °F 20.8 °F 28.4 °F 96% 29.84 in 1.2 mi North 9.2 mph - N/A Snow Light Snow
5:56 PM 29.3 °F 20.8 °F 28.2 °F 96% 29.85 in 1.5 mi North 9.2 mph 16.1 mph N/A Snow Light Snow
6:16 PM 29.3 °F 20.2 °F 27.9 °F 94% 29.86 in 1.8 mi North 10.4 mph - N/A Snow Light Snow
6:36 PM 29.3 °F 19.6 °F 27.9 °F 94% 29.86 in 1.5 mi North 11.5 mph 19.6 mph N/A Snow Light Snow
6:55 PM 26.6 °F 15.2 °F 25.2 °F 94% 29.87 in 1.5 mi North 13.8 mph 20.7 mph N/A Snow Light Snow
7:16 PM 25.7 °F 13.5 °F 24.3 °F 94% 29.87 in 2.0 mi North 15.0 mph 21.9 mph N/A Snow Light Snow
7:36 PM 24.8 °F 12.9 °F 23.0 °F 93% 29.88 in 3.0 mi NNW 13.8 mph 21.9 mph N/A Snow Light Snow
8:16 PM 22.8 °F 10.4 °F 20.3 °F 90% 29.90 in 5.0 mi NNW 13.8 mph 20.7 mph N/A   Overcast
8:36 PM 21.9 °F 9.2 °F 19.4 °F 90% 29.90 in 5.0 mi NNW 13.8 mph - N/A   Overcast
8:56 PM 21.2 °F 7.3 °F 18.9 °F 91% 29.91 in 4.0 mi NNW 16.1 mph 21.9 mph N/A Snow Light Snow
9:16 PM 20.8 °F 7.3 °F 18.1 °F 89% 29.92 in 3.0 mi NNW 15.0 mph 20.7 mph N/A Snow Light Snow
9:36 PM 20.1 °F 7.5 °F 17.2 °F 89% 29.92 in 3.0 mi NNW 12.7 mph 23.0 mph N/A Snow Light Snow
9:56 PM 19.4 °F 6.0 °F 16.5 °F 89% 29.92 in 5.0 mi NNW 13.8 mph 18.4 mph N/A Snow Light Snow
10:16 PM 18.9 °F 5.9 °F 15.8 °F 88% 29.93 in 4.0 mi NNW 12.7 mph - N/A Snow Light Snow
10:36 PM 18.3 °F 6.6 °F 15.4 °F 89% 29.93 in 3.0 mi NNW 10.4 mph 18.4 mph N/A   Overcast
10:56 PM 17.6 °F 4.3 °F 14.5 °F 88% 29.94 in 5.0 mi NNW 12.7 mph 18.4 mph N/A   Overcast
11:15 PM 17.1 °F 3.0 °F 13.8 °F 87% 29.94 in 5.0 mi NNW 13.8 mph - N/A   Overcast
11:36 PM 16.7 °F 3.8 °F 13.6 °F 88% 29.95 in 4.0 mi NW 11.5 mph 16.1 mph N/A   Overcast
11:56 PM 15.6 °F 1.2 °F 12.0 °F 86% 29.95 in 7.0 mi NW 13.8 mph 17.3 mph N/A   Overcast